Probability
0 0 0 0 0 0 0 0 0 0 0 0 0 0 0 0 0 0 0 0 0 0 0 0 0 0 0 0 0 0 0 0 0 0 0 0 0 0 0 0 0 0 0
0 0 0 0 0 0 0 0 0 0 0 0 0 0 0 0 0 0 0 0 0 0 0 0 0 0 0 0 0 0 0 0 0 0 0 0 0 0 0 0 0 0 0
0 0 0 0 0 0 0 0 0 0 0 0 0 0 0 0 0 0 0 0 0 0 0 0 0 0 0 0 0 0 0 0 0 0 0 0 0 0 0 0 0 0 0
0 0 0 0 0 0 0 0 0 0 0 0 0 0 0 0 0 0 0 0 0 0 0 0 0 0 0 0 0 0 0 0 0 0 0 0 0 0 0 0 0 0 0
0 0 0 0 0 0 0 0 0 0 0 0 0 0 0 0 0 0 0 0 0 0 0 0 0 0 0 0 0 0 0 0 0 0 0 0 0 0 0 0 0 0 0
0 0 0 0 0 0 0 0 0 0 0 0 0 0 0 0 0 0 0 0 0 0 0 0 0 0 0 0 0 0 0 0 0 0 0 0 0 0 0 0 0 0 0
0 0 0 0 0 0 0 0 0 0 0 0 0 0 0 0 0 0 0 0 0 0 0 0 0 0 0 0 0 0 0 0 0 0 0 0 0 0 0 0 0 0 0
0 0 0 0 0 0 0 0 0 0 0 0 0 0 0 0 0 0 0 0 0 0 0 0 0 0 0 0 0 0 0 0 0 0 0 0 0 0 0 0 0 0 0
0 0 0 0 0 0 0 0 0 0 0 0 0 0 0 0 0 0 0 0 0 0 0 0 0 0 0 0 0 0 0 0 0 0 0 0 0 0 0 0 0 0 0
0 0 0 0 0 0 0 0 0 0 0 0 0 0 0 0 0 0 0 0 0 0 0 0 0 0 0 0 0 0 0 0 0 0 0 0 0 0 0 0 0 0 0
0 0 0 0 0 0 0 0 0 0 0 0 0 0 0 0 0 0 0 0 0 0 0 0 0 0 0 0 0 0 0 0 0 0 0 0 0 0 0 0 0 0 0
0 0 0 0 0 0 0 0 0 0 0 0 0 0 0 0 0 0 0 0 0 0 0 0 0 0 0 0 0 0 0 0 0 0 0 0 0 0 0 0 0 0 0
0 0 0 0 0 0 0 0 0 0 0 0 0 0 0 0 0 0 0 0 0 0 0 0 0 0 0 0 0 0 0 0 0 0 0 0 0 0 0 0 0 0 0
0 0 0 0 0 0 0 0 0 0 0 0 0 0 0 0 0 0 0 0 0 0 0 0 0 0 0 0 0 0 0 0 0 0 0 0 0 0 0 0 0 0 0
0 0 0 0 0 0 0 0 0 0 0 0 0 0 0 0 0 0 0 0 0 0 0 0 0 0 0 0 0 0 0 0 0 0 0 0 0 0 0 0 0 0 0
0 0 0 0 0 0 0 0 0 0 0 0 0 0 0 0 0 0 0 0 0 0 0 0 0 0 0 0 0 0 0 0 0 0 0 0 0 0 0 0 0 0 0
0 0 0 0 0 0 0 0 0 0 0 0 0 0 0 0 0 0 0 0 0 0 0 0 0 0 0 0 0 0 0 0 0 0 0 0 0 0 0 0 0 0 0
0 0 0 0 0 0 0 0 0 0 0 0 0 0 0 0 0 0 0 0 0 0 0 0 0 0 0 0 0 0 0 0 0 0 0 0 0 0 0 0 0 0 0
0 0 0 0 0 0 0 0 0 0 0 0 0 0 0 0 0 0 0 0 0 0 0 0 0 0 0 0 0 0 0 0 0 0 0 0 0 0 0 0 0 0 0
0 0 0 0 0 0 0 0 0 0 0 0 0 0 0 0 0 0 0 0 0 0 0 0 0 0 0 0 0 0 0 0 0 0 0 0 0 0 0 0 0 0 0
0 0 0 0 0 0 0 0 0 0 0 0 0 0 0 0 0 0 0 0 0 0 0 0 0 0 0 0 0 0 0 0 0 0 0 0 0 0 0 0 0 0 0
0 0 0 0 0 0 0 0 0 0 0 0 0 0 0 0 0 0 0 0 0 0 0 0 0 0 0 0 0 0 0 0 0 0 0 0 0 0 0 0 0 0 0
0 0 0 0 0 0 0 0 0 0 0 0 0 0 0 0 0 0 0 0 0 0 0 0 0 0 0 0 0 0 0 0 0 0 0 0 0 0 0 0 0 0 0
0 0 0 0 0 0 0 0 0 0 0 0 0 0 0 0 0 0 0 0 0 0 0 0 0 0 0 0 0 0 0 0 0 0 0 0 0 0 0 0 0 0 0
0 0 0 0 0 0 0 0 0 0 0 0 0 0 0 0 0 0 0 0 0 0 0 0 0 0 0 0 0 0 0 0 0 0 0 0 0 0 0 0 0 0 0
0 0 0 0 0 0 0 0 0 0 0 0 0 0 0 0 0 0 0 0 0 0 0 0 0 0 0 0 0 0 0 0 0 0 0 0 0 0 0 0 0 0 0
Height
5661 5664 5668 5672 5676 5679 5682 5686 5689 5692 5696 5699 5702 5706 5708 5711 5713 5715 5718 5719 5721 5723 5725 5726 5728 5730 5731 5732 5732 5733 5734 5735 5736 5736 5736 5735 5734 5734 5733 5731 5730 5729 5727
5652 5655 5659 5663 5667 5670 5674 5677 5681 5684 5687 5690 5693 5696 5699 5702 5704 5706 5708 5710 5712 5713 5715 5717 5718 5719 5721 5722 5722 5723 5724 5724 5725 5725 5725 5725 5724 5723 5722 5721 5719 5717 5715
5642 5646 5650 5654 5658 5662 5665 5668 5672 5675 5678 5681 5684 5687 5690 5693 5695 5697 5698 5700 5702 5703 5705 5707 5708 5709 5710 5711 5712 5713 5713 5714 5714 5714 5715 5714 5713 5712 5711 5709 5707 5705 5703
5632 5637 5641 5645 5648 5652 5655 5659 5662 5665 5668 5672 5675 5677 5680 5683 5685 5687 5688 5690 5691 5693 5695 5696 5698 5699 5700 5701 5701 5702 5702 5702 5703 5703 5703 5702 5702 5700 5699 5698 5696 5693 5690
5622 5627 5631 5635 5639 5642 5646 5649 5652 5655 5658 5661 5664 5667 5670 5672 5675 5677 5678 5680 5681 5683 5684 5685 5687 5688 5689 5690 5690 5691 5691 5691 5691 5691 5691 5691 5690 5689 5687 5685 5683 5681 5678
5612 5617 5621 5625 5629 5633 5636 5639 5643 5646 5648 5651 5654 5657 5660 5662 5664 5666 5667 5669 5670 5672 5674 5675 5676 5677 5678 5678 5679 5679 5680 5680 5680 5680 5679 5679 5678 5676 5674 5672 5670 5668 5666
5602 5606 5611 5615 5619 5622 5626 5629 5633 5635 5638 5641 5644 5646 5648 5651 5653 5654 5656 5658 5660 5661 5662 5663 5664 5665 5666 5667 5667 5667 5668 5667 5668 5667 5667 5666 5665 5664 5662 5660 5657 5654 5651
5592 5596 5600 5604 5608 5612 5615 5618 5621 5624 5627 5630 5632 5635 5637 5639 5641 5642 5644 5646 5648 5650 5651 5652 5653 5654 5655 5655 5655 5655 5656 5656 5656 5655 5654 5653 5651 5650 5648 5646 5643 5641 5638
5581 5586 5589 5593 5597 5601 5604 5607 5610 5613 5616 5618 5621 5623 5625 5627 5628 5630 5632 5634 5636 5638 5639 5640 5641 5642 5643 5643 5644 5644 5644 5643 5642 5642 5641 5640 5638 5636 5634 5632 5630 5627 5625
5571 5575 5579 5582 5586 5589 5593 5596 5599 5602 5605 5607 5609 5611 5613 5615 5617 5618 5620 5622 5624 5626 5627 5628 5629 5630 5630 5631 5631 5632 5632 5631 5630 5629 5628 5627 5625 5623 5620 5618 5615 5613 5610
5561 5564 5568 5572 5575 5579 5582 5585 5588 5591 5594 5596 5598 5600 5602 5604 5605 5607 5609 5610 5612 5613 5614 5615 5616 5617 5617 5618 5618 5619 5618 5618 5617 5616 5615 5614 5612 5610 5607 5604 5601 5599 5596
5551 5554 5558 5561 5565 5568 5571 5574 5577 5580 5582 5585 5587 5589 5591 5592 5594 5596 5597 5599 5600 5601 5602 5603 5604 5604 5605 5605 5605 5606 5605 5605 5604 5603 5602 5601 5599 5597 5594 5591 5588 5585 5582
5541 5544 5547 5551 5554 5557 5560 5563 5566 5568 5571 5573 5576 5578 5580 5582 5583 5585 5586 5587 5588 5589 5590 5591 5592 5592 5593 5593 5593 5593 5593 5592 5591 5590 5589 5587 5585 5583 5581 5578 5575 5572 5569
5531 5534 5537 5540 5543 5546 5549 5552 5554 5557 5560 5562 5565 5567 5569 5571 5572 5574 5575 5576 5577 5578 5579 5579 5580 5580 5580 5581 5581 5580 5580 5579 5578 5577 5575 5573 5571 5569 5567 5564 5562 5559 5557
5522 5524 5527 5530 5533 5536 5538 5541 5544 5546 5549 5551 5554 5556 5558 5560 5561 5563 5564 5565 5566 5566 5567 5568 5568 5568 5568 5568 5568 5567 5567 5566 5565 5563 5562 5560 5558 5556 5553 5551 5548 5546 5543
5513 5515 5518 5521 5523 5526 5528 5531 5533 5536 5538 5540 5543 5545 5547 5549 5550 5551 5552 5553 5554 5555 5555 5556 5556 5556 5556 5556 5555 5555 5554 5553 5552 5550 5548 5546 5545 5542 5540 5537 5535 5532 5530
5504 5506 5509 5511 5513 5516 5518 5521 5523 5526 5527 5529 5532 5534 5536 5537 5539 5540 5540 5541 5542 5543 5544 5544 5545 5545 5544 5544 5543 5542 5541 5540 5538 5537 5535 5533 5531 5529 5526 5524 5521 5519 5516
5495 5497 5499 5501 5504 5506 5508 5510 5513 5515 5518 5519 5521 5523 5525 5526 5527 5528 5529 5530 5531 5532 5532 5533 5533 5533 5532 5531 5530 5529 5528 5527 5525 5523 5521 5519 5517 5515 5512 5510 5507 5505 5502
5486 5488 5490 5492 5494 5496 5498 5500 5502 5505 5507 5509 5511 5512 5514 5515 5516 5517 5518 5519 5520 5520 5521 5521 5520 5520 5520 5519 5518 5517 5515 5514 5512 5510 5508 5506 5503 5501 5499 5496 5494 5492 5489
5477 5479 5481 5482 5484 5486 5488 5490 5492 5494 5496 5498 5499 5501 5502 5504 5505 5506 5507 5507 5508 5508 5509 5508 5508 5508 5507 5506 5505 5504 5502 5501 5499 5497 5495 5492 5490 5488 5486 5484 5482 5479 5477
5469 5470 5472 5473 5475 5477 5479 5480 5482 5483 5485 5487 5488 5490 5491 5492 5493 5494 5495 5496 5496 5496 5496 5496 5495 5495 5494 5493 5492 5491 5489 5488 5486 5484 5482 5480 5477 5476 5474 5472 5469 5467 5464
5460 5461 5462 5464 5465 5467 5469 5470 5472 5473 5474 5476 5477 5479 5479 5481 5482 5483 5483 5484 5484 5484 5483 5483 5482 5482 5481 5480 5479 5477 5476 5474 5473 5471 5469 5467 5465 5463 5462 5460 5457 5455 5452
5451 5452 5453 5454 5456 5457 5459 5460 5461 5462 5464 5465 5466 5467 5468 5469 5470 5471 5471 5471 5471 5471 5471 5470 5469 5468 5467 5466 5465 5464 5462 5461 5459 5458 5456 5455 5453 5451 5450 5448 5445 5443 5440
5443 5444 5444 5445 5446 5448 5449 5450 5451 5452 5453 5455 5456 5457 5457 5458 5458 5459 5459 5459 5459 5459 5458 5457 5457 5456 5454 5453 5452 5450 5449 5448 5446 5445 5444 5443 5441 5439 5437 5435 5433 5431 5428
5434 5435 5436 5436 5437 5438 5439 5440 5441 5442 5443 5444 5445 5446 5446 5447 5447 5447 5447 5447 5447 5446 5446 5445 5444 5443 5442 5440 5439 5438 5436 5435 5434 5433 5432 5431 5429 5427 5425 5423 5421 5419 5417
5425 5426 5427 5427 5428 5429 5430 5430 5431 5432 5433 5434 5435 5435 5436 5436 5436 5436 5436 5435 5435 5434 5433 5432 5431 5430 5429 5428 5427 5425 5424 5423 5422 5421 5420 5419 5418 5416 5414 5412 5410 5408 5406
Wind_Speed
40 39 39 40 40 40 39 39 39 39 40 40 41 42 41 41 41 40 40 40 41 41 42 42 42 41 41 41 42 42 42 41 41 42 42 42 42 42 42 42 43 44 45
40 40 40 40 40 40 40 39 39 40 40 41 42 42 43 42 42 41 41 41 42 42 42 43 43 43 42 42 42 42 42 42 42 42 42 43 43 43 43 44 45 46 47
41 41 41 40 40 40 40 40 40 40 40 41 41 43 44 43 42 42 42 41 42 42 43 43 43 43 43 42 42 42 43 43 43 42 43 43 43 44 45 46 46 48 49
41 41 41 41 40 40 40 40 41 41 41 42 42 42 41 41 41 41 41 41 42 43 43 43 43 43 43 43 43 43 43 44 44 45 45 44 45 45 46 47 47 48 49
42 42 41 41 41 41 41 41 41 41 42 42 42 42 42 42 42 42 43 43 43 43 43 43 42 43 44 43 43 44 45 45 45 46 46 46 46 46 47 48 48 48 48
42 42 42 42 42 41 41 41 41 42 42 42 43 43 43 43 43 42 42 43 43 44 44 44 44 44 44 44 44 45 45 46 46 46 47 47 48 48 48 49 49 49 49
43 42 43 43 42 42 42 42 42 42 43 43 44 44 44 44 44 44 44 44 44 44 44 44 44 44 44 45 46 46 46 47 47 47 47 47 48 48 49 49 49 50 50
43 43 43 43 43 43 42 43 43 44 44 44 45 45 45 45 45 45 45 45 45 45 45 45 45 45 46 46 46 46 46 47 48 48 48 48 48 49 49 50 51 51 50
42 42 43 43 43 43 43 43 43 43 43 43 43 44 44 45 45 45 45 45 45 45 45 46 46 46 46 46 46 46 46 47 48 48 48 49 50 50 50 50 50 50 50
41 41 41 42 43 43 43 43 43 43 42 42 42 43 43 43 43 43 44 44 45 45 45 46 47 46 46 46 46 46 46 46 47 48 48 48 49 49 49 50 51 51 51
40 40 40 41 41 41 41 42 42 42 42 42 42 42 42 42 42 42 43 43 43 44 45 45 45 46 45 45 45 45 46 47 47 48 48 48 48 49 50 51 51 52 53
38 39 40 40 40 40 40 41 41 41 42 41 41 41 41 41 41 41 42 42 42 43 43 43 43 43 44 44 44 45 45 46 46 47 47 48 48 49 50 51 51 52 52
36 37 37 38 38 39 39 40 40 41 41 41 41 41 41 41 41 41 41 41 41 41 41 41 41 42 42 43 43 44 45 45 46 46 47 48 49 50 51 51 51 50 50
36 36 36 37 37 38 38 38 39 39 40 40 40 40 40 40 40 40 40 40 40 40 40 40 40 41 41 42 43 44 44 45 46 47 47 48 49 50 50 50 49 49 48
34 35 36 36 36 37 37 37 38 38 39 39 39 39 39 39 39 39 39 39 39 40 40 40 40 41 42 42 44 44 44 45 46 47 48 48 48 49 49 49 48 48 47
34 35 35 36 36 37 37 37 37 38 39 39 39 39 39 39 39 39 39 39 39 39 39 40 40 41 42 43 44 44 45 45 46 47 48 48 48 48 48 48 48 48 48
33 34 34 35 35 35 36 36 37 38 38 38 38 38 38 38 39 39 39 39 39 39 39 40 41 41 42 43 43 44 44 45 45 46 46 47 47 47 47 47 47 48 48
31 32 33 34 34 35 35 35 36 36 36 37 37 37 37 37 38 38 39 39 39 39 40 40 40 41 41 42 42 43 43 43 44 45 46 46 47 47 46 46 46 46 46
31 31 32 33 34 34 34 35 35 35 36 36 37 37 38 38 38 39 39 39 39 39 39 40 40 40 40 40 41 41 42 43 44 45 45 45 45 45 44 44 44 44 45
29 30 31 32 33 33 34 34 34 34 35 35 36 36 37 38 38 39 39 40 40 40 39 40 40 40 41 41 42 42 43 43 43 44 45 45 44 44 43 43 43 44 44
29 30 30 31 32 32 33 33 33 34 34 34 35 35 36 37 38 39 39 40 40 40 40 40 42 42 42 43 43 43 43 43 44 44 44 44 43 42 42 43 43 43 43
29 29 30 31 32 32 33 33 34 34 34 35 35 36 37 38 38 38 39 39 40 40 41 41 41 42 42 43 44 44 44 44 44 44 44 43 41 41 41 42 42 42 42
29 29 30 31 31 32 33 34 34 34 34 34 35 35 36 36 37 38 38 39 40 41 41 41 41 41 42 43 44 44 44 44 44 43 42 41 41 41 42 42 42 41 41
29 29 29 30 31 32 32 33 33 33 34 34 35 35 36 36 37 37 38 39 39 40 40 40 40 41 42 42 43 43 43 43 42 41 41 40 41 41 41 41 40 40 39
28 28 29 30 30 31 31 32 32 32 33 34 34 35 35 35 36 36 37 38 38 39 39 40 40 40 40 41 41 40 40 40 39 39 39 39 39 39 39 39 38 38 37
28 28 29 29 29 29 30 30 30 31 31 32 33 33 33 33 34 34 35 36 36 37 37 38 38 38 38 39 39 39 38 38 38 37 37 37 37 37 37 37 36 35 35
Wind_Direction
242 242 241 242 243 244 244 244 244 245 245 246 247 248 249 250 253 256 256 257 257 257 257 258 259 261 263 265 266 268 269 270 272 272 273 274 275 277 278 280 281 282 284
241 242 242 241 242 244 244 245 245 246 244 245 246 247 249 251 253 255 257 257 258 258 258 259 260 262 264 266 267 268 269 270 273 273 273 275 276 277 279 281 282 283 285
240 240 240 241 242 243 244 245 246 246 246 247 248 249 250 251 252 254 256 257 258 260 260 260 261 263 265 266 268 268 269 271 273 273 273 275 277 278 280 281 283 284 286
239 239 239 240 241 242 244 245 245 247 247 248 249 250 251 251 254 256 257 259 260 261 262 262 262 263 265 266 267 268 270 272 273 274 275 276 277 279 280 282 283 285 287
239 239 239 240 242 243 244 246 246 248 248 248 250 251 253 254 256 258 258 260 260 261 263 263 264 264 265 266 268 268 270 271 273 274 275 276 277 279 281 283 284 286 287
240 240 241 241 242 244 245 246 247 249 249 250 251 253 253 254 257 259 260 260 260 261 262 263 264 265 266 267 267 269 270 271 272 274 275 276 278 280 282 284 285 286 287
240 240 241 241 243 245 246 246 247 248 249 251 253 254 255 257 257 259 259 260 260 261 262 263 264 264 266 267 269 270 271 272 272 274 276 278 280 282 283 284 285 287 289
240 241 241 242 244 246 247 248 248 249 250 252 254 256 257 258 258 259 259 260 261 262 263 263 264 265 267 268 269 271 271 272 274 275 277 279 281 283 283 285 286 288 289
241 242 243 244 245 246 247 248 249 250 251 253 254 256 258 258 258 259 260 260 261 262 263 264 265 266 267 267 269 270 271 273 275 276 278 279 282 283 285 286 286 288 288
242 243 243 244 246 247 248 249 249 249 251 252 254 255 256 257 258 259 260 260 261 262 263 264 265 265 267 268 269 270 272 273 275 277 279 280 282 284 285 286 287 288 288
244 244 245 245 246 246 248 248 249 250 251 252 253 254 255 256 257 258 260 262 263 264 265 266 266 267 267 267 269 270 272 274 276 278 280 282 283 284 286 287 288 289 289
244 245 246 246 246 247 247 248 250 252 252 253 254 254 256 257 258 260 262 263 264 265 265 265 266 267 267 268 270 272 273 275 277 279 280 282 284 285 286 287 289 289 290
244 245 246 247 247 248 248 250 251 251 252 252 253 254 256 257 259 261 262 263 264 265 265 265 265 267 268 268 270 272 274 276 277 279 281 283 284 285 286 287 287 288 290
245 246 246 247 248 249 249 250 250 251 252 253 253 255 256 257 259 260 262 263 264 266 266 265 266 267 268 269 270 272 274 276 277 279 281 283 283 283 285 286 286 287 288
246 246 247 248 249 249 250 250 250 251 252 253 254 255 256 258 259 260 262 264 266 266 266 267 267 269 270 271 272 273 275 276 278 280 282 283 283 284 284 285 286 287 287
246 247 248 249 250 251 251 252 252 253 253 254 255 256 257 258 259 260 261 264 265 266 267 268 269 271 272 274 275 275 276 277 278 279 281 282 282 283 284 285 285 286 287
247 248 249 250 252 253 253 253 254 254 255 255 256 257 258 258 260 261 263 264 265 266 268 269 271 272 273 275 276 277 277 278 279 280 281 282 283 284 284 284 285 286 287
249 251 251 252 254 255 254 254 254 254 255 256 257 257 258 259 260 261 263 264 266 267 269 270 272 273 274 275 277 277 277 279 280 282 283 283 284 285 285 285 286 287 288
251 252 252 254 255 255 254 254 254 255 255 255 256 257 257 257 259 261 263 264 266 268 269 270 272 273 275 276 277 278 280 281 283 283 284 285 285 286 285 285 286 287 288
251 253 255 255 254 254 254 255 255 255 256 256 256 257 257 258 259 261 263 265 266 267 269 270 271 272 274 276 278 279 281 282 283 284 285 285 285 285 285 286 287 288 288
254 255 255 255 255 254 255 256 256 256 257 257 257 257 258 259 261 262 264 266 267 268 269 270 272 273 275 276 278 279 280 282 283 283 283 284 284 284 284 286 287 288 288
255 256 256 255 254 254 254 256 257 258 258 258 258 259 260 262 263 264 265 266 267 269 271 272 274 275 276 277 278 279 281 281 282 282 282 282 282 283 284 286 287 288 288
257 257 256 255 255 254 256 258 259 259 259 259 261 262 262 263 264 265 266 267 269 271 272 274 275 275 276 278 279 279 280 280 280 281 281 280 281 283 284 286 287 288 288
258 258 257 257 257 258 258 259 260 260 260 260 262 264 265 266 266 267 268 269 270 271 272 273 275 276 277 278 278 279 279 279 280 280 280 281 282 283 284 285 286 287 288
262 261 260 259 259 259 259 260 260 260 261 262 263 264 266 268 269 269 270 270 271 272 273 274 275 276 277 277 277 278 278 278 279 279 279 281 282 283 284 285 286 287 288
262 262 262 260 259 260 260 260 260 261 262 263 263 264 266 268 270 270 271 272 272 274 275 276 276 276 276 276 277 277 278 278 279 279 280 281 282 284 285 286 287 286 287